,,PA_Meas_PMT16A,,PR_Meas_QMR101_102,,RH_Meas_QMH101,,SR_Meas_QMS101,,TA_Meas_QMH101,,GenWind,,GenWind,
time,status,PA,status,PR,status,RH,status,SR,status,TA,status,DirAvg,status,SpdAvg,
2012-05-04, 00:00:05,VALID,917.279,VALID,0,VALID,93.7375,VALID,0,VALID,20.6943,VALID,351,VALID,0,
2012-05-04, 00:01:05,VALID,917.28,VALID,0,VALID,93.4326,VALID,0.107441,VALID,20.6358,VALID,351,VALID,0,
2012-05-04, 00:02:05,VALID,917.292,VALID,0,VALID,93.4173,VALID,0.107441,VALID,20.6163,VALID,351,VALID,0.0886719,
2012-05-04, 00:03:05,VALID,917.291,VALID,0,VALID,93.4555,VALID,0.107441,VALID,20.5968,VALID,351,VALID,0,
2012-05-04, 00:04:05,VALID,917.276,VALID,0,VALID,93.6155,VALID,0.107441,VALID,20.5773,VALID,351,VALID,0,
2012-05-04, 00:05:05,VALID,917.253,VALID,0,VALID,93.6689,VALID,0.107441,VALID,20.5773,VALID,351,VALID,0.151953,
2012-05-04, 00:06:05,VALID,917.247,VALID,0,VALID,93.7451,VALID,0,VALID,20.5773,VALID,351,VALID,0,
2012-05-04, 00:07:05,VALID,917.226,VALID,0,VALID,93.7756,VALID,0,VALID,20.5383,VALID,351,VALID,0,
2012-05-04, 00:08:05,VALID,917.239,VALID,0,VALID,93.8214,VALID,0.107441,VALID,20.5188,VALID,351,VALID,0,
2012-05-04, 00:09:05,VALID,917.232,VALID,0,VALID,93.8824,VALID,0.107441,VALID,20.5188,VALID,351,VALID,0,
2012-05-04, 00:10:05,VALID,917.226,VALID,0,VALID,93.8976,VALID,0,VALID,20.4813,VALID,351,VALID,0,
2012-05-04, 00:11:05,VALID,917.205,VALID,0,VALID,94.0043,VALID,0,VALID,20.4618,VALID,351,VALID,0,
2012-05-04, 00:12:05,VALID,917.201,VALID,0,VALID,94.1111,VALID,0,VALID,20.4829,VALID,351,VALID,0.151172,
2012-05-04, 00:13:05,VALID,917.171,VALID,0,VALID,94.1263,VALID,0,VALID,20.4813,VALID,351,VALID,0.519531,
2012-05-04, 00:14:05,VALID,917.167,VALID,0,VALID,94.0958,VALID,0,VALID,20.5204,VALID,351,VALID,0.397266,
2012-05-04, 00:15:05,VALID,917.165,VALID,0,VALID,93.9586,VALID,0,VALID,20.5399,VALID,351,VALID,0.541797,
2012-05-04, 00:16:05,VALID,917.156,VALID,0,VALID,93.8443,VALID,0,VALID,20.5399,VALID,351,VALID,0.675,
2012-05-04, 00:17:05,VALID,917.155,VALID,0,VALID,93.5851,VALID,0,VALID,20.5594,VALID,351,VALID,0.429688,
2012-05-04, 00:18:05,VALID,917.125,VALID,0,VALID,93.6232,VALID,0,VALID,20.5204,VALID,351,VALID,0.491797,
2012-05-04, 00:19:05,VALID,917.101,VALID,0,VALID,93.7833,VALID,0,VALID,20.5009,VALID,351,VALID,0.517969,
2012-05-04, 00:20:05,VALID,917.124,VALID,0,VALID,93.8595,VALID,0,VALID,20.5414,VALID,351,VALID,0.827344,
2012-05-04, 00:21:05,VALID,917.094,VALID,0,VALID,93.9281,VALID,0,VALID,20.5204,VALID,351,VALID,0.775391,
2012-05-04, 00:22:05,VALID,917.105,VALID,0,VALID,93.9967,VALID,0,VALID,20.5399,VALID,346,VALID,0.739062,
2012-05-04, 00:23:05,VALID,917.093,VALID,0,VALID,93.9815,VALID,0,VALID,20.5609,VALID,344,VALID,0.536719,
2012-05-04, 00:24:05,VALID,917.074,VALID,0,VALID,93.951,VALID,0,VALID,20.5594,VALID,342,VALID,0.557422,
2012-05-04, 00:25:05,VALID,917.101,VALID,0,VALID,94.0577,VALID,0,VALID,20.5789,VALID,337,VALID,0.471484,
2012-05-04, 00:26:05,VALID,917.054,VALID,0,VALID,94.1034,VALID,0,VALID,20.5984,VALID,337,VALID,0.00585938,
2012-05-04, 00:27:05,VALID,917.054,VALID,0,VALID,94.1034,VALID,0,VALID,20.5999,VALID,337,VALID,0.375391,
2012-05-04, 00:28:05,VALID,917.037,VALID,0,VALID,94.1034,VALID,0,VALID,20.5984,VALID,337,VALID,0.566016,
2012-05-04, 00:29:05,VALID,917.033,VALID,0,VALID,94.0348,VALID,0,VALID,20.5984,VALID,337,VALID,0.392188,
2012-05-04, 00:30:05,VALID,917.018,VALID,0,VALID,93.9891,VALID,0,VALID,20.5999,VALID,337,VALID,0.447266,
2012-05-04, 00:31:05,VALID,917.005,VALID,0,VALID,93.9738,VALID,0,VALID,20.5789,VALID,337,VALID,0.537109,
2012-05-04, 00:32:05,VALID,916.989,VALID,0,VALID,93.9434,VALID,0,VALID,20.5984,VALID,337,VALID,0.303516,
2012-05-04, 00:33:05,VALID,916.998,VALID,0,VALID,93.9586,VALID,0,VALID,20.5984,VALID,337,VALID,0,
2012-05-04, 00:34:05,VALID,916.969,VALID,0,VALID,94.0272,VALID,0,VALID,20.6179,VALID,337,VALID,0,
2012-05-04, 00:35:05,VALID,916.975,VALID,0,VALID,94.0958,VALID,0,VALID,20.6179,VALID,337,VALID,0,
2012-05-04, 00:36:05,VALID,916.959,VALID,0,VALID,94.0958,VALID,0,VALID,20.5984,VALID,337,VALID,0,
2012-05-04, 00:37:05,VALID,916.955,VALID,0,VALID,93.9891,VALID,0,VALID,20.5984,VALID,337,VALID,0.496484,
2012-05-04, 00:38:05,VALID,916.949,VALID,0,VALID,93.9052,VALID,0,VALID,20.6194,VALID,337,VALID,0.318359,
2012-05-04, 00:39:05,VALID,916.926,VALID,0,VALID,93.7528,VALID,0,VALID,20.5984,VALID,337,VALID,0.365625,
2012-05-04, 00:40:05,VALID,916.937,VALID,0,VALID,93.6537,VALID,0,VALID,20.6194,VALID,337,VALID,0.464453,
2012-05-04, 00:41:05,VALID,916.909,VALID,0,VALID,93.5851,VALID,0,VALID,20.6179,VALID,337,VALID,0.331641,
2012-05-04, 00:42:05,VALID,916.905,VALID,0,VALID,93.5164,VALID,0,VALID,20.6374,VALID,337,VALID,0,
2012-05-04, 00:43:05,VALID,916.911,VALID,0,VALID,93.3792,VALID,0,VALID,20.6585,VALID,337,VALID,0.295312,
2012-05-04, 00:44:05,VALID,916.887,VALID,0,VALID,93.2649,VALID,0,VALID,20.678,VALID,337,VALID,0,
2012-05-04, 00:45:05,VALID,916.883,VALID,0,VALID,93.1276,VALID,0,VALID,20.6569,VALID,337,VALID,0.260547,
2012-05-04, 00:46:05,VALID,916.869,VALID,0,VALID,93.0209,VALID,0,VALID,20.6569,VALID,337,VALID,0.393359,
2012-05-04, 00:47:05,VALID,916.854,VALID,0,VALID,92.9447,VALID,0,VALID,20.678,VALID,337,VALID,0.509375,
2012-05-04, 00:48:05,VALID,916.839,VALID,0,VALID,92.8989,VALID,0,VALID,20.6374,VALID,337,VALID,0.373828,
2012-05-04, 00:49:05,VALID,916.813,VALID,0,VALID,92.9904,VALID,0,VALID,20.6374,VALID,337,VALID,0.0449219,
2012-05-04, 00:50:05,VALID,916.83,VALID,0,VALID,93.0133,VALID,0,VALID,20.6585,VALID,337,VALID,0.139844,
2012-05-04, 00:51:05,VALID,916.844,VALID,0,VALID,92.9599,VALID,0,VALID,20.6179,VALID,337,VALID,0.557422,
2012-05-04, 00:52:05,VALID,916.824,VALID,0,VALID,92.9904,VALID,0,VALID,20.6585,VALID,337,VALID,0,
2012-05-04, 00:53:05,VALID,916.822,VALID,0,VALID,93.0895,VALID,0,VALID,20.6764,VALID,337,VALID,0.0714844,
2012-05-04, 00:54:05,VALID,916.782,VALID,0,VALID,93.3182,VALID,0,VALID,20.6764,VALID,337,VALID,0.354688,
2012-05-04, 00:55:05,VALID,916.778,VALID,0,VALID,93.5241,VALID,0,VALID,20.6764,VALID,337,VALID,0.393359,
2012-05-04, 00:56:05,VALID,916.791,VALID,0,VALID,93.8138,VALID,0,VALID,20.6569,VALID,337,VALID,0.451172,
2012-05-04, 00:57:05,VALID,916.776,VALID,0,VALID,94.0806,VALID,0,VALID,20.6179,VALID,337,VALID,0.438672,
2012-05-04, 00:58:05,VALID,916.748,VALID,0,VALID,94.2788,VALID,0,VALID,20.6194,VALID,337,VALID,0.346875,
2012-05-04, 00:59:05,VALID,916.724,VALID,0,VALID,94.4617,VALID,0,VALID,20.5789,VALID,337,VALID,0.108594,
2012-05-04, 01:00:05,VALID,916.733,VALID,0,VALID,94.6218,VALID,0,VALID,20.5399,VALID,337,VALID,0.0015625,
2012-05-04, 01:01:05,VALID,916.68,VALID,0,VALID,94.7667,VALID,0,VALID,20.5804,VALID,337,VALID,0.3125,
2012-05-04, 01:02:05,VALID,916.656,VALID,0,VALID,94.8734,VALID,0,VALID,20.5399,VALID,337,VALID,0,
2012-05-04, 01:03:05,VALID,916.654,VALID,0,VALID,94.9496,VALID,0,VALID,20.5399,VALID,337,VALID,0,
2012-05-04, 01:04:05,VALID,916.675,VALID,0,VALID,94.9725,VALID,0,VALID,20.5609,VALID,337,VALID,0,
2012-05-04, 01:05:05,VALID,916.665,VALID,0,VALID,95.0259,VALID,0,VALID,20.5414,VALID,337,VALID,0,
2012-05-04, 01:06:05,VALID,916.648,VALID,0,VALID,95.0183,VALID,0,VALID,20.5414,VALID,337,VALID,0.282031,
2012-05-04, 01:07:05,VALID,916.669,VALID,0,VALID,95.0869,VALID,0,VALID,20.5414,VALID,337,VALID,0.0710938,
2012-05-04, 01:08:05,VALID,916.703,VALID,0,VALID,95.125,VALID,0,VALID,20.5414,VALID,337,VALID,0,
2012-05-04, 01:09:05,VALID,916.691,VALID,0,VALID,95.1783,VALID,0,VALID,20.5204,VALID,337,VALID,0,
2012-05-04, 01:10:05,VALID,916.704,VALID,0,VALID,95.1479,VALID,0.107441,VALID,20.5188,VALID,337,VALID,0,
2012-05-04, 01:11:05,VALID,916.688,VALID,0,VALID,95.1707,VALID,0,VALID,20.4993,VALID,337,VALID,0,
2012-05-04, 01:12:05,VALID,916.686,VALID,0,VALID,95.2165,VALID,0.107441,VALID,20.5188,VALID,337,VALID,0,
2012-05-04, 01:13:05,VALID,916.664,VALID,0,VALID,95.2698,VALID,0,VALID,20.5188,VALID,337,VALID,0,
2012-05-04, 01:14:05,VALID,916.658,VALID,0,VALID,95.2775,VALID,0,VALID,20.5188,VALID,337,VALID,0,
2012-05-04, 01:15:05,VALID,916.639,VALID,0,VALID,95.3232,VALID,0.107441,VALID,20.5188,VALID,337,VALID,0,
2012-05-04, 01:16:05,VALID,916.694,VALID,0,VALID,95.3079,VALID,0.107441,VALID,20.5188,VALID,337,VALID,0,
2012-05-04, 01:17:05,VALID,916.636,VALID,0,VALID,95.3003,VALID,0,VALID,20.5188,VALID,337,VALID,0,
2012-05-04, 01:18:05,VALID,916.622,VALID,0,VALID,95.3003,VALID,0,VALID,20.5399,VALID,337,VALID,0,
2012-05-04, 01:19:05,VALID,916.618,VALID,0,VALID,95.2698,VALID,0,VALID,20.5399,VALID,337,VALID,0,
2012-05-04, 01:20:05,VALID,916.617,VALID,0,VALID,95.2851,VALID,0,VALID,20.5188,VALID,337,VALID,0,
2012-05-04, 01:21:05,VALID,916.597,VALID,0,VALID,95.2622,VALID,0.107441,VALID,20.5188,VALID,337,VALID,0,
2012-05-04, 01:22:05,VALID,916.589,VALID,0,VALID,95.1174,VALID,0,VALID,20.5009,VALID,337,VALID,0,
2012-05-04, 01:23:05,VALID,916.584,VALID,0,VALID,95.1707,VALID,0,VALID,20.4798,VALID,337,VALID,0,
2012-05-04, 01:24:05,VALID,916.572,VALID,0,VALID,95.1402,VALID,0.107441,VALID,20.4408,VALID,337,VALID,0.655469,
2012-05-04, 01:25:05,VALID,916.581,VALID,0,VALID,95.1631,VALID,0.107441,VALID,20.4018,VALID,337,VALID,0.714844,
2012-05-04, 01:26:05,VALID,916.554,VALID,0,VALID,95.2927,VALID,0,VALID,20.3823,VALID,337,VALID,0.575,
2012-05-04, 01:27:05,VALID,916.544,VALID,0,VALID,95.3766,VALID,0,VALID,20.4033,VALID,337,VALID,0.691016,
2012-05-04, 01:28:05,VALID,916.562,VALID,0,VALID,95.4299,VALID,0,VALID,20.3628,VALID,337,VALID,0.554297,
2012-05-04, 01:29:05,VALID,916.539,VALID,0,VALID,95.468,VALID,0,VALID,20.3838,VALID,337,VALID,0.472266,
2012-05-04, 01:30:05,VALID,916.514,VALID,0,VALID,95.529,VALID,0,VALID,20.4033,VALID,337,VALID,0.387891,
2012-05-04, 01:31:05,VALID,916.55,VALID,0,VALID,95.5748,VALID,0,VALID,20.4018,VALID,337,VALID,0.185547,
2012-05-04, 01:32:05,VALID,916.535,VALID,0,VALID,95.5976,VALID,0,VALID,20.4213,VALID,337,VALID,0,
2012-05-04, 01:33:05,VALID,916.529,VALID,0,VALID,95.5976,VALID,0,VALID,20.4423,VALID,337,VALID,0,
2012-05-04, 01:34:05,VALID,916.517,VALID,0,VALID,95.5443,VALID,0.107441,VALID,20.4408,VALID,337,VALID,0,
2012-05-04, 01:35:05,VALID,916.547,VALID,0,VALID,95.5595,VALID,0,VALID,20.4618,VALID,337,VALID,0,
2012-05-04, 01:36:05,VALID,916.58,VALID,0,VALID,95.5671,VALID,0.107441,VALID,20.4603,VALID,337,VALID,0,
2012-05-04, 01:37:05,VALID,916.546,VALID,0,VALID,95.59,VALID,0.107441,VALID,20.4603,VALID,337,VALID,0,
2012-05-04, 01:38:05,VALID,916.576,VALID,0,VALID,95.5748,VALID,0.107441,VALID,20.4798,VALID,337,VALID,0,
2012-05-04, 01:39:05,VALID,916.572,VALID,0,VALID,95.5443,VALID,0,VALID,20.5009,VALID,337,VALID,0,
2012-05-04, 01:40:05,VALID,916.594,VALID,0,VALID,95.5214,VALID,0,VALID,20.5219,VALID,337,VALID,0,
2012-05-04, 01:41:05,VALID,916.636,VALID,0,VALID,95.4528,VALID,0,VALID,20.4813,VALID,337,VALID,0.416406,
2012-05-04, 01:42:05,VALID,916.621,VALID,0,VALID,95.5062,VALID,0,VALID,20.4829,VALID,337,VALID,0.499609,
2012-05-04, 01:43:05,VALID,916.636,VALID,0,VALID,95.5595,VALID,0,VALID,20.4813,VALID,354,VALID,0.893359,
2012-05-04, 01:44:05,VALID,916.612,VALID,0,VALID,95.6357,VALID,0,VALID,20.5009,VALID,333,VALID,0.792188,
2012-05-04, 01:45:05,VALID,916.589,VALID,0,VALID,95.6434,VALID,0,VALID,20.5009,VALID,333,VALID,0.492969,
2012-05-04, 01:46:05,VALID,916.563,VALID,0,VALID,95.6815,VALID,0,VALID,20.5204,VALID,333,VALID,0.621875,
2012-05-04, 01:47:05,VALID,916.575,VALID,0,VALID,95.7349,VALID,0,VALID,20.5009,VALID,334,VALID,0.798437,
2012-05-04, 01:48:05,VALID,916.578,VALID,0,VALID,95.7196,VALID,0,VALID,20.5204,VALID,334,VALID,0.360938,
2012-05-04, 01:49:05,VALID,916.537,VALID,0,VALID,95.7501,VALID,0,VALID,20.5414,VALID,334,VALID,0,
2012-05-04, 01:50:05,VALID,916.553,VALID,0,VALID,95.7425,VALID,0,VALID,20.5399,VALID,334,VALID,0,
2012-05-04, 01:51:05,VALID,916.525,VALID,0,VALID,95.7272,VALID,0,VALID,20.5399,VALID,334,VALID,0.561719,
2012-05-04, 01:52:05,VALID,916.526,VALID,0,VALID,95.7806,VALID,0,VALID,20.5594,VALID,334,VALID,0.457422,
2012-05-04, 01:53:05,VALID,916.54,VALID,0,VALID,95.7501,VALID,0,VALID,20.5594,VALID,334,VALID,0.130859,
2012-05-04, 01:54:05,VALID,916.529,VALID,0,VALID,95.7272,VALID,0,VALID,20.5594,VALID,350,VALID,0.816406,
2012-05-04, 01:55:05,VALID,916.513,VALID,0,VALID,95.7349,VALID,0,VALID,20.5578,VALID,350,VALID,0.369531,
2012-05-04, 01:56:05,VALID,916.514,VALID,0,VALID,95.7272,VALID,0.107441,VALID,20.5578,VALID,350,VALID,0.162891,
2012-05-04, 01:57:05,VALID,916.474,VALID,0,VALID,95.7196,VALID,0.107441,VALID,20.5578,VALID,350,VALID,0.358203,
2012-05-04, 01:58:05,VALID,916.445,VALID,0,VALID,95.7196,VALID,0,VALID,20.5789,VALID,350,VALID,0.542188,
2012-05-04, 01:59:05,VALID,916.462,VALID,0,VALID,95.712,VALID,0,VALID,20.5773,VALID,350,VALID,0.766406,
2012-05-04, 02:00:05,VALID,916.43,VALID,0,VALID,95.712,VALID,0,VALID,20.5773,VALID,350,VALID,0.403516,
2012-05-04, 02:01:05,VALID,916.413,VALID,0,VALID,95.6586,VALID,0.107441,VALID,20.5968,VALID,350,VALID,0.421484,
2012-05-04, 02:02:05,VALID,916.397,VALID,0,VALID,95.6053,VALID,0,VALID,20.5984,VALID,350,VALID,0.2125,
2012-05-04, 02:03:05,VALID,916.382,VALID,0,VALID,95.6281,VALID,0,VALID,20.5773,VALID,350,VALID,0.464063,
2012-05-04, 02:04:05,VALID,916.369,VALID,0,VALID,95.6662,VALID,0.107441,VALID,20.5773,VALID,350,VALID,0.705859,
2012-05-04, 02:05:05,VALID,916.359,VALID,0,VALID,95.6434,VALID,0.107441,VALID,20.5773,VALID,350,VALID,0.398438,
2012-05-04, 02:06:05,VALID,916.347,VALID,0,VALID,95.651,VALID,0,VALID,20.5773,VALID,350,VALID,0.0898438,
2012-05-04, 02:07:05,VALID,916.317,VALID,0,VALID,95.651,VALID,0,VALID,20.5968,VALID,350,VALID,0.514453,
2012-05-04, 02:08:05,VALID,916.327,VALID,0,VALID,95.6205,VALID,0.107441,VALID,20.5773,VALID,350,VALID,0.485547,
2012-05-04, 02:09:05,VALID,916.311,VALID,0,VALID,95.5976,VALID,0,VALID,20.6179,VALID,350,VALID,0.855859,
2012-05-04, 02:10:05,VALID,916.288,VALID,0,VALID,95.5519,VALID,0,VALID,20.5789,VALID,350,VALID,0.788281,
2012-05-04, 02:11:05,VALID,916.307,VALID,0,VALID,95.6053,VALID,0,VALID,20.5984,VALID,350,VALID,0.546484,
2012-05-04, 02:12:05,VALID,916.305,VALID,0,VALID,95.6586,VALID,0,VALID,20.5578,VALID,350,VALID,0.415625,
2012-05-04, 02:13:05,VALID,916.264,VALID,0,VALID,95.6739,VALID,0,VALID,20.5594,VALID,350,VALID,0.460156,
2012-05-04, 02:14:05,VALID,916.24,VALID,0,VALID,95.651,VALID,0,VALID,20.5789,VALID,350,VALID,0.560938,
2012-05-04, 02:15:05,VALID,916.227,VALID,0,VALID,95.6662,VALID,0,VALID,20.5999,VALID,350,VALID,0.0644531,
2012-05-04, 02:16:05,VALID,916.231,VALID,0,VALID,95.6434,VALID,0,VALID,20.5789,VALID,350,VALID,0.378125,
2012-05-04, 02:17:05,VALID,916.222,VALID,0,VALID,95.651,VALID,0,VALID,20.5789,VALID,350,VALID,0,
2012-05-04, 02:18:05,VALID,916.16,VALID,0,VALID,95.5976,VALID,0,VALID,20.5594,VALID,350,VALID,0,
2012-05-04, 02:19:05,VALID,916.186,VALID,0,VALID,95.6434,VALID,0,VALID,20.5789,VALID,350,VALID,0.384375,
2012-05-04, 02:20:05,VALID,916.172,VALID,0,VALID,95.5748,VALID,0,VALID,20.5594,VALID,350,VALID,0.348047,
2012-05-04, 02:21:05,VALID,916.127,VALID,0,VALID,95.6281,VALID,0,VALID,20.5399,VALID,350,VALID,0,
2012-05-04, 02:22:05,VALID,916.122,VALID,0,VALID,95.6205,VALID,0,VALID,20.5594,VALID,350,VALID,0.607813,
2012-05-04, 02:23:05,VALID,916.108,VALID,0,VALID,95.6281,VALID,0,VALID,20.5188,VALID,350,VALID,0.61875,
2012-05-04, 02:24:05,VALID,916.145,VALID,0,VALID,95.6129,VALID,0,VALID,20.5399,VALID,350,VALID,0.35,
2012-05-04, 02:25:04,VALID,916.127,VALID,0,VALID,95.6357,VALID,0,VALID,20.5399,VALID,350,VALID,0,
2012-05-04, 02:26:04,VALID,916.144,VALID,0,VALID,95.651,VALID,0,VALID,20.5399,VALID,350,VALID,0,
2012-05-04, 02:27:04,VALID,916.121,VALID,0,VALID,95.6815,VALID,0,VALID,20.5188,VALID,350,VALID,0.35,
2012-05-04, 02:28:04,VALID,916.15,VALID,0,VALID,95.6815,VALID,0,VALID,20.4993,VALID,350,VALID,0.461328,
2012-05-04, 02:29:04,VALID,916.151,VALID,0,VALID,95.6739,VALID,0,VALID,20.5204,VALID,350,VALID,0.612891,
2012-05-04, 02:30:04,VALID,916.166,VALID,0,VALID,95.7349,VALID,0,VALID,20.5009,VALID,350,VALID,0.703906,
2012-05-04, 02:31:04,VALID,916.138,VALID,0,VALID,95.7044,VALID,0,VALID,20.5009,VALID,350,VALID,0.3125,
2012-05-04, 02:32:04,VALID,916.12,VALID,0,VALID,95.7272,VALID,0,VALID,20.5204,VALID,347,VALID,0.713281,
2012-05-04, 02:33:04,VALID,916.137,VALID,0,VALID,95.712,VALID,0,VALID,20.4798,VALID,343,VALID,0.972266,
2012-05-04, 02:34:04,VALID,916.135,VALID,0,VALID,95.7501,VALID,0,VALID,20.5009,VALID,22,VALID,0.414063,
2012-05-04, 02:35:04,VALID,916.118,VALID,0,VALID,95.7425,VALID,0,VALID,20.5219,VALID,22,VALID,0.357422,
2012-05-04, 02:36:04,VALID,916.074,VALID,0,VALID,95.7425,VALID,0,VALID,20.5188,VALID,22,VALID,0.405078,
2012-05-04, 02:37:04,VALID,916.106,VALID,0,VALID,95.7425,VALID,0,VALID,20.5594,VALID,22,VALID,0.360938,
2012-05-04, 02:38:04,VALID,916.099,VALID,0,VALID,95.7196,VALID,0,VALID,20.5594,VALID,22,VALID,0.216406,
2012-05-04, 02:39:04,VALID,916.099,VALID,0,VALID,95.712,VALID,0,VALID,20.5399,VALID,22,VALID,0,
2012-05-04, 02:40:04,VALID,916.051,VALID,0,VALID,95.6967,VALID,0,VALID,20.5789,VALID,22,VALID,0.849219,
2012-05-04, 02:41:04,VALID,916.042,VALID,0,VALID,95.6739,VALID,0,VALID,20.5594,VALID,22,VALID,0.522656,
2012-05-04, 02:42:04,VALID,916.036,VALID,0,VALID,95.6357,VALID,0,VALID,20.5383,VALID,22,VALID,0.877344,
2012-05-04, 02:43:04,VALID,916.029,VALID,0,VALID,95.6434,VALID,0,VALID,20.5594,VALID,22,VALID,0.885156,
2012-05-04, 02:44:04,VALID,916.013,VALID,0,VALID,95.6357,VALID,0,VALID,20.5383,VALID,22,VALID,0.448438,
2012-05-04, 02:45:04,VALID,915.999,VALID,0,VALID,95.5671,VALID,0,VALID,20.5383,VALID,22,VALID,0.505078,
2012-05-04, 02:46:04,VALID,915.981,VALID,0,VALID,95.5671,VALID,0,VALID,20.5399,VALID,22,VALID,0.283203,
2012-05-04, 02:47:04,VALID,915.966,VALID,0,VALID,95.529,VALID,0,VALID,20.5009,VALID,22,VALID,0.470313,
2012-05-04, 02:48:04,VALID,915.985,VALID,0,VALID,95.4985,VALID,0,VALID,20.5009,VALID,22,VALID,0.626953,
2012-05-04, 02:49:04,VALID,915.984,VALID,0,VALID,95.5214,VALID,0,VALID,20.5009,VALID,22,VALID,0.386719,
2012-05-04, 02:50:04,VALID,916.002,VALID,0,VALID,95.4909,VALID,0,VALID,20.5009,VALID,22,VALID,0,
2012-05-04, 02:51:04,VALID,916.012,VALID,0,VALID,95.4452,VALID,0,VALID,20.4813,VALID,22,VALID,0.525,
2012-05-04, 02:52:04,VALID,915.972,VALID,0,VALID,95.468,VALID,0,VALID,20.5219,VALID,22,VALID,0.436719,
2012-05-04, 02:53:04,VALID,915.957,VALID,0,VALID,95.4147,VALID,0,VALID,20.4813,VALID,22,VALID,0.501953,
2012-05-04, 02:54:04,VALID,915.947,VALID,0,VALID,95.4375,VALID,0,VALID,20.5009,VALID,22,VALID,0,
2012-05-04, 02:55:04,VALID,915.93,VALID,0,VALID,95.4223,VALID,0,VALID,20.5009,VALID,22,VALID,0.321875,
2012-05-04, 02:56:04,VALID,915.88,VALID,0,VALID,95.3766,VALID,0,VALID,20.4798,VALID,22,VALID,0.555859,
2012-05-04, 02:57:04,VALID,915.834,VALID,0,VALID,95.3766,VALID,0,VALID,20.4603,VALID,22,VALID,0.239453,
2012-05-04, 02:58:04,VALID,915.807,VALID,0,VALID,95.3537,VALID,0,VALID,20.5009,VALID,22,VALID,0.150781,
2012-05-04, 02:59:04,VALID,915.797,VALID,0,VALID,95.3689,VALID,0,VALID,20.4813,VALID,22,VALID,0,
2012-05-04, 03:00:04,VALID,915.768,VALID,0,VALID,95.3384,VALID,0,VALID,20.4813,VALID,22,VALID,0,
2012-05-04, 03:01:04,VALID,915.762,VALID,0,VALID,95.3461,VALID,0,VALID,20.4813,VALID,22,VALID,0,
2012-05-04, 03:02:04,VALID,915.752,VALID,0,VALID,95.3308,VALID,0,VALID,20.4813,VALID,22,VALID,0.203125,
2012-05-04, 03:03:04,VALID,915.705,VALID,0,VALID,95.3308,VALID,0,VALID,20.4618,VALID,22,VALID,0.138281,
2012-05-04, 03:04:04,VALID,915.696,VALID,0,VALID,95.3232,VALID,0,VALID,20.4813,VALID,22,VALID,0.445313,
2012-05-04, 03:05:04,VALID,915.731,VALID,0,VALID,95.3003,VALID,0,VALID,20.4618,VALID,21,VALID,0.576172,
2012-05-04, 03:06:04,VALID,915.692,VALID,0,VALID,95.2851,VALID,0,VALID,20.4423,VALID,17,VALID,0.567969,
2012-05-04, 03:07:04,VALID,915.696,VALID,0,VALID,95.2927,VALID,0,VALID,20.4423,VALID,349,VALID,0.509766,
2012-05-04, 03:08:04,VALID,915.699,VALID,0,VALID,95.3232,VALID,0,VALID,20.4439,VALID,349,VALID,0.610547,
2012-05-04, 03:09:04,VALID,915.67,VALID,0,VALID,95.3384,VALID,0,VALID,20.4439,VALID,349,VALID,0.778125,
2012-05-04, 03:10:04,VALID,915.658,VALID,0,VALID,95.3537,VALID,0,VALID,20.4213,VALID,349,VALID,0.387109,
2012-05-04, 03:11:04,VALID,915.654,VALID,0,VALID,95.3537,VALID,0,VALID,20.4213,VALID,349,VALID,0.716016,
2012-05-04, 03:12:04,VALID,915.636,VALID,0,VALID,95.3461,VALID,0,VALID,20.4228,VALID,349,VALID,0.66875,
2012-05-04, 03:13:04,VALID,915.613,VALID,0,VALID,95.3232,VALID,0,VALID,20.4228,VALID,349,VALID,0.849219,
2012-05-04, 03:14:04,VALID,915.593,VALID,0,VALID,95.3308,VALID,0,VALID,20.4018,VALID,349,VALID,0.6125,
2012-05-04, 03:15:04,VALID,915.583,VALID,0,VALID,95.3537,VALID,0,VALID,20.4033,VALID,349,VALID,0.260156,
2012-05-04, 03:16:04,VALID,915.592,VALID,0,VALID,95.3994,VALID,0,VALID,20.4033,VALID,349,VALID,0.397266,
2012-05-04, 03:17:04,VALID,915.591,VALID,0,VALID,95.4452,VALID,0,VALID,20.4018,VALID,349,VALID,0.473437,
2012-05-04, 03:18:04,VALID,915.57,VALID,0,VALID,95.4757,VALID,0,VALID,20.3823,VALID,349,VALID,0.204688,
2012-05-04, 03:19:04,VALID,915.608,VALID,0,VALID,95.5138,VALID,0,VALID,20.3823,VALID,349,VALID,0,
2012-05-04, 03:20:04,VALID,915.6,VALID,0,VALID,95.5214,VALID,0.107441,VALID,20.4018,VALID,349,VALID,0,
2012-05-04, 03:21:04,VALID,915.555,VALID,0,VALID,95.5367,VALID,0,VALID,20.4033,VALID,349,VALID,0,
2012-05-04, 03:22:04,VALID,915.568,VALID,0,VALID,95.5367,VALID,0,VALID,20.3823,VALID,349,VALID,0,
2012-05-04, 03:23:04,VALID,915.581,VALID,0,VALID,95.529,VALID,0.107441,VALID,20.3823,VALID,349,VALID,0,
2012-05-04, 03:24:04,VALID,915.581,VALID,0,VALID,95.5519,VALID,0,VALID,20.4033,VALID,349,VALID,0,
2012-05-04, 03:25:04,VALID,915.587,VALID,0,VALID,95.5671,VALID,0,VALID,20.3823,VALID,349,VALID,0,
2012-05-04, 03:26:04,VALID,915.589,VALID,0,VALID,95.5595,VALID,0.107441,VALID,20.3838,VALID,349,VALID,0,
2012-05-04, 03:27:04,VALID,915.615,VALID,0,VALID,95.5824,VALID,0.107441,VALID,20.3628,VALID,349,VALID,0,
2012-05-04, 03:28:04,VALID,915.581,VALID,0,VALID,95.5976,VALID,0,VALID,20.3238,VALID,349,VALID,0,
2012-05-04, 03:29:04,VALID,915.599,VALID,0,VALID,95.6129,VALID,0,VALID,20.3433,VALID,349,VALID,0,
2012-05-04, 03:30:04,VALID,915.602,VALID,0,VALID,95.6205,VALID,0,VALID,20.3043,VALID,349,VALID,0,
2012-05-04, 03:31:04,VALID,915.574,VALID,0,VALID,95.6891,VALID,0,VALID,20.3253,VALID,349,VALID,0,
2012-05-04, 03:32:04,VALID,915.587,VALID,0,VALID,95.7501,VALID,0,VALID,20.3238,VALID,349,VALID,0.408203,
2012-05-04, 03:33:04,VALID,915.576,VALID,0,VALID,95.7654,VALID,0,VALID,20.3448,VALID,349,VALID,0.524219,
2012-05-04, 03:34:04,VALID,915.523,VALID,0,VALID,95.7654,VALID,0,VALID,20.3238,VALID,349,VALID,0.706641,
2012-05-04, 03:35:04,VALID,915.504,VALID,0,VALID,95.7501,VALID,0,VALID,20.3253,VALID,349,VALID,0.534375,
2012-05-04, 03:36:04,VALID,915.483,VALID,0,VALID,95.8035,VALID,0.107441,VALID,20.3448,VALID,349,VALID,0.290234,
2012-05-04, 03:37:04,VALID,915.48,VALID,0,VALID,95.8263,VALID,0,VALID,20.3448,VALID,349,VALID,0.132813,
2012-05-04, 03:38:04,VALID,915.467,VALID,0,VALID,95.8111,VALID,0,VALID,20.3448,VALID,349,VALID,0.450391,
2012-05-04, 03:39:04,VALID,915.477,VALID,0,VALID,95.834,VALID,0,VALID,20.3043,VALID,349,VALID,0.709375,
2012-05-04, 03:40:04,VALID,915.489,VALID,0,VALID,95.8721,VALID,0,VALID,20.3253,VALID,6,VALID,0.810938,
2012-05-04, 03:41:04,VALID,915.525,VALID,0,VALID,95.8873,VALID,0.107441,VALID,20.3253,VALID,360,VALID,0.934766,
2012-05-04, 03:42:04,VALID,915.507,VALID,0,VALID,95.8797,VALID,0,VALID,20.3253,VALID,360,VALID,0.769922,
2012-05-04, 03:43:04,VALID,915.524,VALID,0,VALID,95.8721,VALID,0,VALID,20.3253,VALID,7,VALID,0.751953,
2012-05-04, 03:44:04,VALID,915.583,VALID,0,VALID,95.8797,VALID,0,VALID,20.3058,VALID,7,VALID,0.764844,
2012-05-04, 03:45:04,VALID,915.583,VALID,0,VALID,95.8568,VALID,0,VALID,20.3253,VALID,7,VALID,0.716406,
2012-05-04, 03:46:04,VALID,915.571,VALID,0,VALID,95.895,VALID,0,VALID,20.2848,VALID,7,VALID,0.711328,
2012-05-04, 03:47:04,VALID,915.616,VALID,0,VALID,95.8797,VALID,0,VALID,20.3058,VALID,7,VALID,1.01484,